Regional Weather Roundup
Issued by NWS Jackson, KY

Home | Current Version | Previous Version | Text Only | Print | Product List | Glossary Off
Versions: 1 2 3 4 5 6 7 8 9 10 11 12 13 14 15 16 17 18 19 20 21 22 23 24 25 26 27 28

000
ASUS43 KJKL 250910
RWRJKL

EAST KENTUCKY HOURLY WEATHER ROUNDUP
NATIONAL WEATHER SERVICE JACKSON KY
500 AM EDT MON JUL 25 2016

NOTE: "FAIR" INDICATES FEW OR NO CLOUDS BELOW 12,000 FEET WITH
NO SIGNIFICANT WEATHER AND/OR OBSTRUCTIONS TO VISIBILITY.

* THESE REPORTS ARE NOT UNDER NWS QUALITY CONTROL AND MAY NOT
  REPORT WEATHER SUCH AS PRECIPITATION AND FOG.

KYZ079-080-083-085-087-088-110-112-115-119-120-251000
...EASTERN KENTUCKY...

CITY           SKY/WX    TMP DP  RH WIND       PRES   REMARKS
JACKSON        CLOUDY    75  74  96 CALM      30.06S FOG
LONDON         CLEAR     74  71  91 CALM      30.06F
SOMERSET*      CLEAR     72  72 100 CALM      30.06S
WILLIAMSBURG*  SUNNY     72  72 100 CALM      30.07S
MIDDLESBORO*   PTCLDY    73  73  99 CALM      30.08S
HARLAN APT*    CLOUDY    73  72  94 CALM      30.10S
PIKE CO APT*     N/A     74  74 100 S3        30.07S
BIG SANDY APT* SUNNY     76  76  99 CALM      30.05S
MOREHEAD APT*  CLOUDY    75  73  94 CALM      30.05S FOG
ASHLAND*       CLOUDY    75  73  94 CALM      29.99S VSB 1/2
$$

KYZ035-036-041-042-044-050-067-078-099-251000
...CENTRAL KENTUCKY...

CITY           SKY/WX    TMP DP  RH WIND       PRES   REMARKS
MT STERLING*   CLOUDY    75  73  94 SW3       30.05F
FLEMING/MASON* CLOUDY    74  73  93 SW5       30.03F
DANVILLE*      PTCLDY    73  72  94 CALM      30.05S
RICHMOND*      PTCLDY    75  72  88 CALM      30.04S
LEXINGTON      CLEAR     76  73  91 S3        30.03F
FRANKFORT      CLEAR     77  73  87 SW3       30.01F
LOUISVILLE     MOCLDY    82  75  79 CALM      29.99F
LEBANON*         N/A     77  75  94 CALM      30.03S
GLASGOW*       PTCLDY    76  76 100 CALM      30.02S
BOWLING GREEN  CLOUDY    80  76  87 S6        30.01F
$$

KYZ091>093-OHZ055-061-077-WVZ005-015-034-035-042-251000
...SOUTHERN OHIO/WEST VIRGINIA...

CITY           SKY/WX    TMP DP  RH WIND       PRES   REMARKS
COVINGTON      MOCLDY    76  75  97 SW3       30.01S
COLUMBUS       MOCLDY    78  74  87 SE5       29.97S
DAYTON         CLOUDY    78  75  90 SW10      29.98F
WILMINGTON     CLEAR     75  74  96 SW3       30.00F
HUNTINGTON       N/A     77  75  93 SW3       30.01S
CHARLESTON       N/A     75  72  90 CALM      30.02S
PINEVILLE*     CLOUDY    72  69  90 MISG      30.14S FOG
BECKLEY          N/A     71  66  84 CALM      30.13S
BLUEFIELD        N/A     70  65  84 W5        30.16S
LOGAN CO APT*  FOG       73  73 100 CALM      30.06S VSB<1/4
$$

VAZ002-007-008-TNZ017-027-036-066-071-251000
...SOUTHWEST VIRGINIA/EAST TENNESSEE...

CITY           SKY/WX    TMP DP  RH WIND       PRES   REMARKS
WISE*          MOCLDY    72  68  88 S6        30.16F
JONESVILLE*      N/A     72  70  94 CALM      30.11S FOG
ABINGDON*      MOCLDY    72  71  96 CALM      30.12S
BRISTOL        PTCLDY    71  68  90 CALM      30.09S
MORRISTOWN*    SUNNY     75  72  88 CALM      30.06S
SEVIERVILLE*   SUNNY     72  68  88 CALM      30.06R
KNOXVILLE      CLEAR     77  74  90 CALM      30.04S
OAK RIDGE      CLEAR     77  72  84 S3        30.06S
CROSSVILLE     CLEAR     70  69  97 CALM      30.11S FOG
NASHVILLE      MOCLDY    78  73  84 CALM      30.03S
$$

...KEY TO REMARKS...
VSB - VISIBILITY IN MILES
WCI - WIND CHILL INDEX
HX  - HEAT INDEX

$$




USA.gov is the U.S. government's official web portal to all federal, state and local government web resources and services.